Weather observations for the past three days for
Otis Air National Guard Base
| Date | Time (edt) | Wind (kph) | Vis. (km) | Weather | Sky Cond. | Temperature (ºC) | Relative Humidity | Wind Chill (°C) | Heat Index (°C) | Pressure | Precipitation (cm) | ||||||
|---|---|---|---|---|---|---|---|---|---|---|---|---|---|---|---|---|---|
| Air | Dwpt | 6 hour | altimeter (cm) | sea level (mb) | 1 hr | 3 hr | 6 hr | ||||||||||
| Max. | Min. | ||||||||||||||||
| 02 | 02:55 | E 11 | 16.09 | Mostly Cloudy | BKN075 | 16 | 16 | 100% | 76.53 | 0.0 | |||||||
| 02 | 01:55 | E 11 | 16.09 | Mostly Cloudy | BKN075 | 16 | 16 | 100% | 76.53 | 0.0 | |||||||
| 02 | 00:55 | E 15 | 16.09 | Overcast | OVC075 | 17 | 14 | 83% | 76.48 | 0.0 | |||||||
| 02 | 00:00 | E 15 | 16.09 | Overcast | OVC075 | 17 | 14 | 83% | 76.48 | 0.0 | |||||||
| 01 | 23:55 | E 15 | 16.09 | Overcast | OVC075 | 17 | 14 | 83% | 76.48 | 0.0 | |||||||
| 01 | 22:55 | NE 11 | 16.09 | Overcast | OVC075 | 16 | 15 | 94% | 76.48 | 0.0 | |||||||
| 01 | 21:55 | E 9 | 16.09 | Overcast | OVC075 | 15 | 14 | 94% | 76.45 | 0.0 | |||||||
| 01 | 20:56 | E 9 | 16.09 | Mostly Cloudy | BKN080 | 16 | 13 | 83% | 76.45 | 0.0 | |||||||
| 01 | 19:56 | E 9 | 16.09 | Overcast | OVC080 | 17 | 16 | 94% | 76.43 | 0.0 | |||||||
| 01 | 18:56 | Calm | 16.09 | Overcast | OVC080 | 17 | 16 | 94% | 76.4 | 0.0 | |||||||
| 01 | 17:56 | Calm | 16.09 | Mostly Cloudy | FEW012 BKN033 | 17 | 16 | 94% | 76.45 | 0.0 | |||||||
| 01 | 16:56 | SE 9 | 16.09 | Light Rain | SCT014 OVC042 | 17 | 17 | 100% | 76.4 | 0.0 | |||||||
| 01 | 15:56 | SE 9 | 8.05 | Light Rain Fog/Mist | SCT008 OVC050 | 17 | 16 | 94% | 76.38 | 0.0 | |||||||
| 01 | 14:56 | S 13 | 9.66 | Rain Fog/Mist | OVC065 | 17 | 16 | 94% | 76.35 | 0.0 | |||||||
| 01 | 13:56 | S 19 | 16.09 | Overcast | OVC048 | 18 | 14 | 78% | 76.4 | 0.0 | |||||||
| 01 | 12:56 | S 19 | 16.09 | Overcast | FEW044 OVC100 | 21 | 14 | 64% | 76.35 | 0.0 | |||||||
| 01 | 11:55 | SE 15 | 16.09 | Mostly Cloudy | FEW050 BKN065 | 21 | 15 | 69% | 76.38 | 0.0 | |||||||
| 01 | 10:55 | SE 7 | 16.09 | Overcast | OVC060 | 22 | 17 | 73% | 76.4 | 0.0 | |||||||
| 01 | 09:55 | SE 9 | 16.09 | Overcast | OVC060 | 21 | 18 | 83% | 76.4 | 0.0 | |||||||
| 01 | 08:55 | SE 7 | 16.09 | Overcast | BKN060 OVC100 | 21 | 18 | 83% | 76.4 | 0.0 | |||||||
| 01 | 07:55 | Calm | 16.09 | Overcast | OVC070 | 21 | 18 | 83% | 76.4 | 0.0 | |||||||
| 01 | 06:55 | Calm | 16.09 | Overcast | BKN060 OVC080 | 18 | 17 | 94% | 76.35 | 0.0 | |||||||
| 01 | 05:56 | Calm | 16.09 | Overcast | OVC070 | 17 | 16 | 94% | 76.33 | 0.0 | |||||||
| 01 | 04:56 | Calm | 16.09 | Overcast | FEW060 OVC075 | 18 | 17 | 94% | 76.38 | 0.0 | |||||||
| 01 | 03:56 | Calm | 16.09 | Overcast | OVC080 | 18 | 16 | 88% | 76.38 | 0.0 | |||||||
| 01 | 02:56 | Calm | 16.09 | Overcast | OVC080 | 18 | 16 | 88% | 76.43 | 0.0 | |||||||
| 01 | 01:56 | Calm | 16.09 | Overcast | OVC080 | 17 | 15 | 88% | 76.43 | 0.0 | |||||||
| 01 | 00:56 | SW 9 | 16.09 | Partly Cloudy | SCT085 | 17 | 15 | 88% | 76.43 | 0.0 | |||||||
| 31 | 23:56 | SW 9 | 16.09 | Fair | CLR | 18 | 16 | 88% | 76.45 | 0.0 | |||||||
| 31 | 22:56 | SW 9 | 16.09 | Light Rain | SCT090 BKN110 | 19 | 17 | 88% | 76.48 | 0.0 | |||||||
| 31 | 21:56 | S 9 | 16.09 | Overcast | OVC100 | 19 | 16 | 83% | 76.48 | 0.0 | |||||||
| 31 | 20:56 | S 7 | 16.09 | Overcast | OVC110 | 19 | 16 | 83% | 76.48 | 0.0 | |||||||
| 31 | 19:56 | S 9 | 16.09 | A Few Clouds | FEW110 | 18 | 16 | 88% | 76.5 | 0.0 | |||||||
| 31 | 18:56 | S 11 | 16.09 | Fair | CLR | 20 | 16 | 78% | 76.5 | 0.0 | |||||||
| 31 | 17:56 | S 13 | 16.09 | Fair | CLR | 21 | 16 | 73% | 76.5 | 0.0 | |||||||
| 31 | 16:56 | S 17 | 16.09 | Fair | CLR | 22 | 17 | 73% | 76.5 | 0.0 | |||||||
| 31 | 15:56 | E 11 | 16.09 | Fair | CLR | 22 | 14 | 61% | 76.5 | 0.0 | |||||||
| 31 | 14:56 | NE 7 | 16.09 | Fair | CLR | 22 | 14 | 61% | 76.56 | 0.0 | |||||||
| 31 | 13:56 | NE 13 | 16.09 | Fair | CLR | 23 | 13 | 53% | 76.56 | 0.0 | |||||||
| 31 | 12:56 | NE 13 | 16.09 | Fair | CLR | 23 | 13 | 53% | 76.58 | 0.0 | |||||||
| 31 | 11:55 | NE 7 | 16.09 | A Few Clouds | FEW040 | 22 | 14 | 61% | 76.61 | 0.0 | |||||||
| 31 | 10:55 | N 15 | 16.09 | Fair | CLR | 21 | 16 | 73% | 76.61 | 0.0 | |||||||
| 31 | 09:55 | NE 15 | 16.09 | Fair | CLR | 21 | 16 | 73% | 76.56 | 0.0 | |||||||
| 31 | 08:55 | NE 15 | 16.09 | A Few Clouds | FEW040 | 20 | 17 | 83% | 76.56 | 0.0 | |||||||
| 31 | 07:55 | NE 11 | 16.09 | A Few Clouds | FEW040 | 18 | 17 | 94% | 76.53 | 0.0 | |||||||
| 31 | 06:50 | NE 6 | 16.09 | A Few Clouds | FEW040 | 18 | 18 | 100% | 76.5 | 0.0 | |||||||
| 31 | 05:55 | N 9 | 16.09 | Fair | CLR | 18 | 18 | 100% | 76.43 | 0.0 | |||||||
| 31 | 04:55 | N 7 | 16.09 | Fair | CLR | 18 | 18 | 100% | 76.4 | 0.0 | |||||||
| 31 | 03:55 | NW 7 | 16.09 | Fair | CLR | 19 | 18 | 94% | 76.35 | 0.0 | |||||||
| 31 | 02:55 | Calm | 12.87 | A Few Clouds | FEW060 | 19 | 19 | 100% | 76.33 | 0.0 | |||||||
| 31 | 01:55 | Calm | 16.09 | Light Rain | FEW005 SCT011 OVC047 | 19 | 19 | 100% | 76.33 | 0.0 | |||||||
| 31 | 00:55 | W 7 | 12.87 | Light Rain | BKN008 BKN090 | 21 | 21 | 100% | 76.35 | 0.0 | |||||||
| 30 | 23:55 | W 7 | 16.09 | Light Rain | OVC070 | 20 | 19 | 94% | 76.35 | 0.0 | |||||||
| 30 | 22:55 | W 20 | 16.09 | Light Rain | FEW014 BKN080 OVC100 | 21 | 20 | 94% | 76.35 | 0.0 | |||||||
| 30 | 21:55 | W 28 | 16.09 | Light Rain | OVC100 | 22 | 20 | 88% | 76.35 | 0.0 | |||||||
| 30 | 20:55 | W 28 | 16.09 | Mostly Cloudy | BKN034 | 22 | 19 | 83% | 76.35 | 0.0 | |||||||
| 30 | 19:56 | W 19 G 33 | 16.09 | Overcast | OVC050 | 22 | 19 | 83% | 76.35 | 0.0 | |||||||
| 30 | 18:56 | W 20 | 16.09 | Overcast | OVC048 | 22 | 19 | 83% | 76.35 | 0.0 | |||||||
| 30 | 17:56 | SW 17 | 16.09 | Overcast | FEW065 OVC120 | 23 | 17 | 69% | 76.38 | 0.0 | |||||||
| 30 | 16:56 | SW 20 G 35 | 16.09 | Fair | CLR | 23 | 18 | 74% | 76.38 | 0.0 | |||||||
| 30 | 15:56 | W 22 | 16.09 | Fair | CLR | 25 | 16 | 57% | 26 | 76.4 | 0.0 | ||||||
| 30 | 14:56 | SW 24 | 16.09 | Fair | CLR | 27 | 17 | 54% | 28 | 76.43 | 0.0 | ||||||
| 30 | 13:56 | SW 28 | 16.09 | Fair | CLR | 26 | 18 | 61% | 27 | 76.48 | 0.0 | ||||||
| 30 | 12:56 | W 22 | 16.09 | Fair | CLR | 26 | 18 | 61% | 27 | 76.5 | 0.0 | ||||||
| 30 | 11:55 | W 20 | 16.09 | Fair | CLR | 25 | 18 | 65% | 26 | 76.56 | 0.0 | ||||||
| 30 | 10:55 | W 20 | 16.09 | Fair | CLR | 24 | 19 | 74% | 25 | 76.61 | 0.0 | ||||||
| 30 | 09:55 | SW 26 | 16.09 | Fair | CLR | 23 | 18 | 74% | 76.63 | 0.0 | |||||||
| 30 | 08:55 | W 19 | 16.09 | Fair | CLR | 22 | 18 | 78% | 76.66 | 0.0 | |||||||
| 30 | 07:55 | W 13 | 16.09 | Fair | CLR | 20 | 18 | 88% | 76.66 | 0.0 | |||||||
| 30 | 06:55 | Calm | 16.09 | Fair | CLR | 14 | 14 | 100% | 76.66 | 0.0 | |||||||
| 30 | 05:45 | Calm | 16.09 | Fair | CLR | 14 | 14 | 100% | 76.66 | 0.0 | |||||||
| 30 | 04:55 | Calm | 16.09 | Fair | CLR | 14 | 14 | 100% | 76.71 | 0.0 | |||||||
| 30 | 03:55 | Calm | 16.09 | Fair | CLR | 13 | 13 | 100% | 76.68 | 0.0 | |||||||
| Date | Time (edt) | Wind (kph) | Vis. (km) | Weather | Sky Cond. | Air | Dwpt | Max. | Min. | Relative Humidity | Wind Chill (°C) | Heat Index (°C) | altimeter (cm) | sea level (mb) | 1 hr | 3 hr | 6 hr |
| 6 hour | |||||||||||||||||
| Temperature (ºC) | Pressure | Precipitation (cm) | |||||||||||||||